User: anonymous   Login
Location: Unspecified
(0.0000°N, 0.0000°E)
Time: 19:02:24
(UTC+00:00)
Language:

STARLINK-2017 - Orbit

View from above orbital plane
View from above orbital plane
View from above satellite
View from above satellite

Ground track
Ground track

The orbit is defined by the following mean orbital elements,

1 47351U          26145.59944258 +.00000000 +00000-0 -26349-5 0 00007
2 47351  53.1595  15.9504 0001061  87.9185 272.1937 15.31699968    08
Epoch (UTC): 25 May 2026 14:23:11
Eccentricity: 0.0001061
inclination: 53.1595°
perigee height: 470 km
apogee height: 471 km
right ascension of ascending node: 15.9504°
argument of perigee: 87.9185°
revolutions per day: 15.31699968
mean anomaly at epoch: 272.1937°

The dashed part of the orbit path shows where the satellite is in the earth's shadow,  

DLR